Wind_Speed
35 33 9 24 15 18 7 11 13 14 6 3 14 8 8 7 8 10 9 6 3 4 5 5 7 4 2 2 6 12 13 14 14 13 7 6 7 7 6 7 7 8 6 5
18 28 24 20 9 8 6 8 7 6 6 12 6 4 4 4 7 8 9 11 6 7 5 5 5 4 3 3 5 8 10 15 15 13 8 7 8 8 8 6 6 6 8 10
13 21 26 21 11 3 7 5 6 7 10 13 6 7 11 7 3 6 8 7 5 6 8 9 5 4 3 6 6 4 10 15 14 12 9 8 8 8 8 7 8 9 11 11
19 37 23 11 13 7 8 2 5 6 5 8 4 16 11 2 3 7 9 0 1 4 7 8 7 6 3 2 5 5 8 13 13 11 11 10 11 9 8 8 8 10 10 9
40 35 12 15 8 17 6 9 5 2 7 23 18 22 21 7 3 7 7 6 4 3 6 6 6 8 6 4 3 7 9 12 12 11 10 10 7 10 12 9 8 9 8 8
31 20 16 9 3 4 10 6 4 6 7 10 11 12 15 4 6 14 8 7 6 6 4 4 6 5 8 9 7 4 11 11 12 11 11 7 5 6 6 7 5 7 7 9
20 17 17 16 8 4 3 2 10 10 2 8 15 14 22 10 6 15 12 11 10 11 8 8 6 7 6 6 6 3 7 7 10 11 10 7 7 7 4 6 5 3 8 12
15 10 5 7 6 10 5 9 9 8 11 10 7 13 13 11 12 9 13 17 17 15 13 14 12 5 4 6 5 1 4 5 6 6 6 6 8 9 5 3 3 7 8 8
12 26 20 13 9 5 5 6 6 9 8 8 14 14 13 10 9 15 17 17 21 21 14 8 7 9 5 3 4 3 4 5 5 5 7 8 8 5 2 2 5 7 7 9
4 9 11 5 6 9 14 8 3 7 10 6 14 15 24 17 3 17 16 12 11 13 11 9 5 4 5 3 5 4 5 5 5 5 4 4 3 2 1 3 4 1 4 7
14 13 4 15 11 5 2 4 3 5 2 6 16 15 13 5 8 7 17 11 11 10 6 7 6 4 3 5 7 7 6 6 5 4 4 5 4 4 2 3 2 5 6 6
16 10 12 1 7 10 5 9 13 8 5 6 19 18 2 8 11 13 16 17 13 9 7 6 9 7 5 7 9 8 7 6 7 7 9 9 10 7 6 2 4 4 4 5
16 18 13 12 16 7 10 11 6 12 12 18 21 17 9 10 16 9 9 19 18 13 9 12 15 12 9 8 12 8 6 6 4 3 5 4 3 5 4 6 6 6 6 5
21 18 15 13 15 22 20 20 18 13 19 19 24 13 8 13 12 6 14 18 20 18 13 24 11 9 4 15 11 7 6 5 3 2 4 5 6 7 8 8 9 8 7 7
24 14 16 14 30 23 28 27 22 16 6 19 18 20 27 23 13 15 22 25 20 17 16 20 13 1 6 13 8 4 3 3 1 4 4 6 7 7 7 7 9 10 8 8
12 14 18 17 27 1 5 20 21 21 8 9 17 28 20 13 4 17 24 24 15 13 8 18 22 8 11 14 8 4 3 1 1 2 3 5 6 5 7 9 9 9 9 9
20 26 22 21 19 12 8 6 12 13 10 16 14 17 18 17 18 23 23 23 8 6 6 3 7 14 9 8 7 3 1 0 2 1 3 5 4 5 7 8 9 9 10 8
17 25 31 30 22 17 19 25 25 20 27 25 9 2 12 9 20 17 19 17 5 5 7 9 10 14 13 11 9 5 1 4 4 4 5 6 7 7 7 7 7 8 7 7
24 22 26 25 19 22 26 21 35 27 22 34 33 11 21 12 20 19 21 14 5 4 7 11 11 13 14 13 7 4 1 4 6 7 8 9 8 8 9 8 8 8 7 8
25 27 31 26 28 29 27 37 28 37 26 30 40 21 22 12 16 23 20 1 6 6 3 7 11 12 10 8 4 2 4 6 7 9 9 8 9 9 9 9 9 8 8 9
32 41 36 37 33 28 27 26 27 32 25 17 18 17 13 15 26 24 19 21 12 7 9 6 11 12 11 9 7 7 9 9 8 10 10 9 9 9 9 9 9 10 10 11
38 32 34 43 23 31 48 37 45 44 35 32 14 11 14 17 17 23 24 20 17 16 11 10 11 10 12 11 12 12 10 8 11 12 13 10 8 8 8 8 10 12 12 13
41 45 47 38 41 38 46 46 47 48 40 35 34 24 28 28 24 21 25 26 21 20 16 12 11 12 15 15 14 12 12 9 7 4 6 6 7 8 9 10 12 13 13 13
39 45 46 47 49 55 52 45 42 48 47 44 42 40 36 35 29 24 26 28 28 25 22 17 11 10 13 14 14 14 12 12 7 7 6 7 9 11 10 11 13 14 14 13
45 48 49 47 46 52 55 54 53 57 57 52 49 49 48 47 42 32 33 33 32 30 25 23 20 14 10 11 13 13 11 11 11 10 11 12 13 13 12 13 15 16 15 14
47 47 51 53 52 51 54 57 57 54 54 55 56 55 53 51 48 36 34 33 37 35 31 28 25 20 15 11 11 12 12 10 10 12 13 13 15 17 16 15 16 17 16 16
Wind_Direction
172 171 81 134 88 148 15 26 26 348 4 28 208 70 52 46 41 46 48 52 100 193 190 181 193 218 254 264 222 199 198 196 199 205 215 235 253 269 291 307 342 357 350 356
167 164 107 94 76 73 125 121 187 271 355 167 134 25 35 46 58 49 49 57 58 111 146 176 172 186 237 268 250 233 203 194 198 209 213 235 268 261 274 293 328 334 341 347
154 136 113 106 102 156 162 183 209 305 293 345 99 104 19 340 35 48 26 48 49 81 112 106 117 151 215 248 252 230 189 193 201 205 224 253 292 263 278 291 316 321 332 349
198 130 116 88 128 136 219 206 164 203 291 316 353 240 270 262 59 41 42 18 69 65 69 70 77 77 77 262 245 231 193 194 204 215 230 266 280 268 271 295 311 319 332 337
156 134 145 138 98 136 214 132 129 296 264 334 333 318 294 192 190 65 35 38 21 58 61 35 18 10 360 348 287 214 212 210 214 220 242 256 287 266 267 256 295 305 323 330
141 146 147 155 128 101 132 75 341 236 204 320 339 292 22 142 129 85 61 47 29 47 14 6 339 325 316 313 315 250 213 221 234 234 238 256 258 246 261 261 263 292 326 341
117 102 102 117 129 69 117 259 71 39 172 342 295 318 100 66 95 44 24 21 18 2 358 347 350 333 316 288 306 291 195 214 235 237 237 227 235 187 205 226 255 312 351 344
115 188 170 249 159 179 212 319 331 353 315 324 282 340 24 22 352 345 342 344 344 339 333 334 333 318 322 292 285 317 212 215 233 231 203 193 177 170 199 239 325 328 341 1
134 171 180 177 197 245 84 257 280 280 274 234 250 277 187 103 180 332 341 334 328 321 317 314 324 316 288 236 236 215 200 170 173 143 138 148 163 162 194 312 319 318 347 10
292 86 147 60 244 232 203 216 174 266 273 246 289 301 309 157 309 303 318 329 322 312 296 298 287 311 287 240 194 227 218 199 182 179 170 170 166 176 254 326 337 97 353 355
248 246 205 155 257 231 312 182 74 303 257 250 271 292 320 60 326 305 337 348 344 328 295 281 270 274 265 222 199 192 209 202 195 188 192 203 207 230 236 124 24 350 343 346
227 202 234 354 248 208 139 216 255 249 299 304 282 145 191 325 329 337 330 352 344 323 318 297 296 273 220 211 207 204 199 198 200 205 215 219 226 228 194 283 320 330 327 340
215 212 224 227 237 227 274 247 226 286 303 275 266 274 267 266 244 278 329 338 348 316 307 302 292 273 235 226 198 188 195 195 205 212 213 208 189 201 260 277 301 307 303 325
197 207 225 239 245 237 196 215 209 227 248 287 291 282 292 160 234 286 331 330 334 318 300 309 273 233 241 169 164 172 174 178 210 212 200 207 230 245 263 291 298 294 298 311
204 206 222 246 281 256 233 234 215 214 244 298 311 306 260 255 124 319 321 324 321 322 309 308 147 116 277 189 161 181 204 189 207 211 227 239 259 282 298 293 298 298 302 298
217 221 212 245 272 180 290 217 232 214 196 301 313 296 228 144 329 292 302 317 306 303 297 297 168 133 140 157 148 163 178 206 267 257 249 272 285 305 301 293 288 292 290 286
211 219 217 237 243 259 268 142 254 288 229 234 229 251 298 314 292 298 310 319 302 259 240 200 156 138 136 165 143 117 124 148 295 283 294 281 277 271 269 277 285 291 290 302
250 225 221 219 217 250 253 230 213 205 237 224 207 335 228 276 293 317 321 332 311 224 194 182 185 156 154 162 146 123 347 324 306 274 262 249 258 263 265 267 280 284 295 307
245 248 268 256 247 252 243 267 220 230 219 220 220 237 267 276 281 303 309 323 2 255 180 192 190 182 174 154 142 131 354 330 308 262 256 257 265 271 273 273 273 279 297 302
258 251 255 258 258 258 263 257 291 209 242 261 228 233 241 263 268 274 278 299 338 355 253 202 201 205 189 182 186 241 289 287 278 262 253 260 268 273 275 276 275 276 280 287
254 244 223 233 250 244 255 268 265 255 252 293 242 250 217 231 252 274 273 288 307 301 286 274 231 222 205 199 214 245 265 272 272 262 258 260 268 275 283 288 297 301 302 302
240 259 266 241 243 250 242 248 268 261 260 257 233 236 224 235 249 262 271 277 288 295 284 262 260 245 223 215 222 239 251 265 267 281 270 262 271 279 290 310 315 309 306 303
243 238 232 232 243 238 235 240 254 262 267 267 273 260 250 248 250 245 254 261 271 275 286 268 262 256 245 231 228 233 244 260 270 264 233 244 268 283 298 309 306 304 304 303
247 251 249 246 241 254 252 250 248 254 256 254 258 259 257 252 250 241 242 247 252 260 269 259 260 269 267 250 241 241 238 230 234 266 277 280 283 284 290 300 302 306 303 301
250 252 253 251 247 251 257 256 252 252 252 252 252 254 256 257 256 251 239 242 241 243 252 259 251 259 275 269 254 248 246 239 255 272 287 291 291 292 297 306 306 306 298 293
255 256 258 258 252 248 251 256 254 250 249 250 252 253 252 253 256 251 238 239 239 240 248 253 254 247 249 261 269 265 263 265 274 276 287 298 301 301 299 306 305 304 297 291
Height
5879 5884 5882 5885 5893 5899 5898 5900 5898 5896 5910 5910 5903 5904 5909 5908 5907 5904 5904 5902 5901 5902 5903 5904 5905 5906 5906 5906 5907 5909 5910 5914 5917 5919 5922 5922 5922 5925 5926 5924 5925 5922 5924 5925
5888 5889 5888 5889 5899 5905 5908 5911 5915 5913 5912 5909 5905 5909 5910 5910 5910 5909 5907 5906 5906 5904 5903 5904 5904 5905 5905 5906 5907 5909 5910 5913 5916 5918 5920 5923 5923 5924 5924 5926 5925 5927 5926 5925
5881 5885 5888 5898 5904 5913 5911 5911 5913 5915 5912 5911 5901 5904 5911 5912 5910 5910 5908 5907 5909 5907 5905 5903 5903 5904 5905 5905 5907 5908 5910 5913 5915 5918 5919 5921 5923 5925 5927 5928 5927 5927 5927 5925
5885 5890 5895 5897 5905 5911 5914 5912 5912 5914 5912 5912 5909 5902 5907 5909 5909 5909 5908 5910 5910 5908 5906 5905 5905 5906 5906 5905 5906 5908 5910 5912 5914 5917 5918 5920 5922 5924 5926 5927 5927 5927 5927 5925
5883 5880 5890 5900 5904 5906 5909 5910 5909 5913 5915 5910 5909 5908 5902 5902 5909 5906 5907 5908 5909 5909 5908 5908 5908 5907 5906 5906 5906 5907 5909 5911 5913 5916 5917 5919 5921 5923 5924 5925 5926 5926 5926 5925
5881 5888 5889 5896 5903 5906 5908 5909 5911 5911 5915 5916 5909 5907 5909 5906 5903 5904 5908 5909 5909 5910 5909 5910 5909 5908 5908 5906 5905 5905 5907 5909 5911 5913 5915 5917 5919 5920 5923 5923 5924 5925 5926 5925
5891 5894 5895 5899 5904 5909 5910 5913 5913 5914 5916 5917 5907 5906 5900 5906 5906 5908 5911 5911 5910 5908 5910 5909 5909 5908 5906 5906 5905 5905 5906 5908 5909 5911 5913 5915 5917 5919 5921 5922 5924 5926 5925 5925
5885 5898 5903 5906 5906 5909 5912 5913 5912 5913 5917 5916 5910 5906 5900 5905 5905 5911 5911 5911 5910 5909 5907 5906 5908 5907 5906 5905 5906 5905 5905 5907 5909 5911 5912 5914 5916 5920 5921 5923 5923 5924 5926 5926
5886 5893 5898 5899 5906 5909 5910 5915 5917 5917 5918 5917 5910 5912 5910 5906 5908 5909 5909 5909 5909 5908 5906 5905 5903 5903 5906 5905 5904 5906 5907 5908 5910 5912 5913 5915 5917 5920 5921 5922 5922 5923 5923 5923
5885 5892 5899 5901 5905 5907 5906 5911 5914 5915 5914 5914 5908 5910 5907 5899 5908 5906 5908 5907 5906 5905 5903 5904 5903 5903 5902 5903 5904 5905 5907 5909 5910 5912 5913 5915 5917 5919 5920 5921 5921 5922 5923 5923
5894 5896 5900 5898 5907 5908 5909 5909 5913 5916 5912 5913 5908 5908 5906 5903 5909 5906 5904 5905 5903 5902 5901 5900 5901 5901 5901 5902 5904 5906 5907 5909 5910 5912 5913 5915 5916 5918 5919 5920 5921 5922 5922 5922
5894 5898 5902 5903 5907 5907 5909 5910 5912 5913 5913 5912 5903 5901 5909 5910 5906 5906 5902 5903 5902 5900 5899 5898 5898 5898 5899 5900 5902 5904 5906 5908 5910 5911 5913 5914 5916 5917 5919 5920 5921 5921 5922 5921
5893 5894 5898 5902 5906 5904 5908 5909 5910 5910 5911 5902 5908 5906 5905 5906 5906 5906 5906 5901 5901 5899 5897 5896 5895 5894 5895 5897 5900 5903 5905 5908 5910 5911 5913 5914 5915 5916 5918 5919 5919 5920 5920 5919
5887 5893 5896 5901 5898 5899 5900 5903 5903 5906 5903 5902 5904 5904 5904 5901 5904 5905 5903 5903 5899 5898 5895 5890 5892 5892 5892 5894 5898 5902 5905 5907 5909 5910 5911 5913 5915 5916 5917 5916 5918 5918 5917 5917
5885 5891 5895 5900 5888 5893 5894 5899 5901 5900 5903 5903 5901 5897 5895 5892 5883 5901 5901 5900 5898 5898 5893 5881 5842 5888 5891 5895 5897 5901 5904 5906 5907 5908 5910 5913 5914 5914 5914 5915 5916 5916 5915 5915
5882 5886 5888 5890 5883 5892 5890 5895 5897 5898 5903 5905 5898 5892 5887 5887 5896 5899 5897 5898 5898 5896 5897 5885 5850 5889 5888 5894 5898 5901 5903 5905 5906 5908 5910 5911 5911 5912 5913 5913 5913 5913 5913 5913
5880 5879 5881 5886 5891 5887 5884 5895 5896 5896 5898 5901 5898 5893 5886 5886 5896 5896 5895 5895 5896 5894 5895 5893 5892 5892 5892 5896 5898 5900 5902 5904 5905 5906 5907 5909 5910 5910 5912 5911 5911 5911 5911 5910
5876 5876 5874 5875 5881 5882 5886 5884 5888 5884 5891 5896 5894 5893 5895 5893 5889 5893 5892 5893 5893 5892 5892 5893 5894 5892 5894 5897 5898 5900 5902 5903 5905 5905 5906 5908 5909 5909 5909 5909 5909 5909 5908 5907
5871 5874 5874 5875 5875 5877 5877 5873 5879 5878 5876 5882 5888 5889 5890 5893 5886 5889 5889 5890 5891 5891 5891 5893 5893 5894 5894 5897 5898 5900 5901 5902 5903 5904 5906 5907 5907 5907 5907 5906 5907 5906 5905 5905
5864 5867 5869 5870 5869 5869 5872 5859 5854 5861 5872 5876 5875 5885 5888 5892 5888 5881 5886 5888 5891 5891 5892 5893 5894 5893 5894 5895 5896 5898 5899 5900 5901 5902 5903 5904 5904 5905 5905 5904 5903 5902 5901 5901
5850 5852 5848 5856 5862 5866 5859 5846 5848 5857 5868 5861 5872 5879 5883 5882 5880 5881 5885 5887 5889 5890 5892 5892 5892 5892 5893 5893 5895 5896 5897 5898 5899 5900 5900 5900 5901 5901 5900 5899 5898 5897 5896 5896
5845 5847 5844 5845 5845 5856 5848 5850 5847 5850 5859 5866 5867 5873 5877 5877 5878 5879 5879 5883 5886 5887 5889 5889 5888 5889 5890 5890 5892 5893 5894 5895 5896 5895 5895 5896 5897 5897 5897 5895 5894 5893 5892 5892
5834 5834 5833 5840 5834 5836 5835 5840 5841 5841 5849 5854 5857 5863 5868 5870 5874 5878 5877 5879 5881 5884 5886 5886 5885 5885 5886 5887 5889 5890 5891 5892 5892 5891 5892 5892 5893 5893 5893 5892 5892 5891 5889 5889
5822 5819 5823 5827 5829 5823 5830 5834 5835 5835 5839 5844 5848 5853 5858 5863 5869 5872 5873 5874 5877 5879 5882 5883 5883 5883 5884 5885 5887 5888 5889 5889 5890 5890 5890 5890 5890 5890 5889 5889 5888 5887 5886 5885
5808 5807 5809 5814 5818 5816 5814 5818 5824 5826 5828 5833 5838 5843 5848 5853 5859 5864 5866 5868 5870 5873 5876 5878 5880 5881 5882 5883 5885 5886 5886 5886 5886 5887 5887 5888 5888 5886 5886 5885 5884 5884 5883 5883
5794 5797 5795 5795 5799 5803 5802 5801 5804 5811 5816 5820 5825 5830 5836 5842 5847 5853 5857 5861 5863 5865 5866 5871 5875 5878 5879 5881 5882 5882 5883 5883 5883 5884 5884 5885 5885 5884 5884 5883 5882 5882 5881 5880